#timestamp,LO_Frequency,Hit,StdDev 
1670374815.2,286047004.3,N
1670374835.1,286047004.4,N
1670374836.0,286047004.4,N
1670374855.8,286047001.5,N
1670374875.7,286047004.2,N
1670374895.5,286047004.3,N
1670374915.3,286047001.4,N
1670374935.2,286047001.7,N
1670374955.0,286047002.0,N
1670374955.9,286047002.0,N
1670374975.7,286047000.1,N
1670374995.6,286047000.4,N
1670375015.4,286047002.4,N
1670375035.3,286047002.5,N
1670375055.1,286047001.7,N
1670375075.8,286047001.5,N
1670375095.7,286046999.8,N
1670375115.5,286047002.0,N
1670375135.4,286047001.8,N
1670375155.2,286047002.0,N
1670375175.0,286047001.9,N
1670375175.9,286047001.9,N
1670375195.8,286047002.1,N
1670375215.6,286047004.3,Y
1670375235.5,286047000.9,P
1670375255.3,286046998.6,N
1670375275.1,286046999.0,N
1670375295.9,286046999.0,N
1670375315.7,286046998.4,N
1670375335.6,286047001.2,N
1670375355.4,286046998.3,N
1670375375.2,286046998.3,N
1670375395.1,286046999.4,N
1670375396.0,286046999.4,N
1670375415.8,286046998.4,N
1670375435.6,286046998.1,N
1670375455.5,286046998.2,N
1670375475.3,286047001.1,N
1670375495.2,286046998.4,N
1670375515.0,286047000.5,N
1670375515.9,286047000.5,N
1670375535.7,286047002.4,N
1670375555.6,286046999.7,N
1670375575.4,286047002.8,N
1670375595.3,286047000.2,N
1670375615.1,286047000.3,N
1670375616.0,286047000.3,N
1670375635.8,286047000.8,N
1670375655.7,286047001.1,N
1670375675.5,286047002.8,N
1670375695.4,286047002.8,N
1670375715.2,286046999.8,N
1670375735.0,286046999.7,N
1670375735.9,286046999.7,N
1670375755.8,286047002.5,N
1670375775.6,286047002.7,N
1670375795.4,286047000.1,N
1670375815.3,286046999.9,N
1670375835.1,286047000.7,N
1670375855.9,286046998.1,N
1670375875.7,286047001.1,N
1670375895.5,286047000.2,N
1670375915.4,286047000.1,N
1670375935.2,286047002.8,N
1670375955.1,286047001.1,N
1670375956.0,286047001.1,N
1670375975.8,286047001.1,N
1670375995.6,286047000.1,N
1670376015.5,286047002.7,N
1670376035.3,286047002.8,N
1670376055.2,286047002.5,N
1670376075.9,286046999.7,N
1670376095.7,286047002.7,N
1670376115.6,286047000.1,N
1670376135.4,286047002.7,N
1670376155.2,286047002.6,N
1670376175.1,286047000.6,N
1670376176.0,286047000.6,N
1670376195.8,286047002.8,N
1670376215.7,286047002.1,N
1670376235.5,286047002.2,N
1670376255.3,286047002.4,N
1670376275.2,286047000.2,N
1670376295.0,286047000.5,N
1670376295.9,286047000.5,N
1670376315.8,286047001.5,N
1670376335.6,286047002.5,N
1670376355.4,286047002.5,N
1670376375.3,286047002.0,N
1670376395.1,286047001.7,N
1670376415.9,286047002.0,N
1670376435.7,286046999.9,N
1670376455.5,286047002.2,N
1670376475.4,286047004.4,Y
1670376495.2,286047002.1,P
1670376515.0,286047000.1,N
1670376515.9,286047000.1,N
1670376535.8,286047002.5,N
1670376555.6,286047002.8,N
1670376575.5,286046999.8,N
1670376595.3,286046998.1,N
1670376615.1,286047000.6,N
1670376635.9,286046999.1,N
1670376655.7,286046999.4,N
1670376675.6,286047000.7,N
1670376695.4,286047001.2,N
1670376715.2,286046998.9,N
1670376735.1,286046998.5,N
1670376736.0,286046998.5,N
1670376755.8,286047001.0,N
1670376775.6,286047000.8,N
1670376795.5,286047000.8,N
1670376815.3,286047000.5,N
1670376835.2,286047002.4,N
1670376855.0,286046999.9,N
1670376855.9,286046999.9,N
1670376875.7,286047000.9,N
1670376895.6,286047002.7,N
1670376915.4,286047002.4,N
1670376935.3,286047002.7,N
1670376955.1,286047002.7,N
1670376956.0,286047002.7,N
1670376975.8,286047000.0,N
1670376995.7,286046998.5,N
1670377015.5,286047000.5,N
1670377035.3,286047000.2,N
1670377055.2,286047000.0,N
1670377075.0,286046999.8,N
1670377075.9,286046999.8,N
1670377095.8,286046999.8,N
1670377115.6,286047000.5,N
1670377135.4,286047000.4,N
1670377155.3,286047000.1,N
1670377175.1,286047002.8,N
1670377195.9,286047000.1,N
1670377215.7,286047001.1,N
1670377235.5,286046999.0,N
1670377255.4,286046997.4,N
1670377275.2,286046996.9,N
1670377295.0,286047001.0,N
1670377295.9,286047001.0,N
1670377315.8,286046999.6,N
1670377335.6,286046998.6,N
1670377355.5,286046998.6,N
1670377375.3,286047000.8,N
1670377395.1,286047001.1,N
1670377415.9,286046998.3,N
1670377435.7,286046998.3,N
1670377455.5,286046998.6,N
1670377475.4,286046998.2,N
1670377495.2,286046998.1,N
1670377515.0,286046998.3,N
1670377516.0,286046998.3,N
1670377535.8,286046999.0,N
1670377555.6,286046998.2,N
1670377575.5,286047001.2,N
1670377595.3,286047000.7,N
1670377615.2,286046998.8,N
1670377635.9,286046999.0,N
1670377655.7,286046998.9,N
1670377675.6,286046998.8,N
1670377695.4,286046999.2,N
1670377715.2,286046999.2,N
1670377735.1,286046997.4,N
1670377736.0,286046997.4,N
1670377755.8,286046999.4,N
1670377775.7,286046999.5,N
1670377795.5,286046999.2,N
1670377815.3,286046999.2,N
1670377835.2,286046999.0,N
1670377855.0,286046999.1,N
1670377855.9,286046999.1,N
1670377875.7,286046998.3,N
1670377895.6,286046998.6,N
1670377915.4,286047000.6,N
1670377935.3,286047000.0,N
1670377955.1,286047001.9,N
1670377986.0,286047002.6,E
1670377995.1,286047000.2,N
1670377996.0,286047000.2,P
1670378015.8,286046999.1,P
1670378035.6,286046998.6,N
1670378055.5,286046998.8,N
1670378075.3,286046998.5,N
1670378095.1,286046999.0,N
1670378115.9,286046999.2,N
1670378135.7,286046996.9,Y
1670378155.6,286046998.8,P
1670378175.4,286046998.3,P
1670378195.2,286046999.2,N
1670378215.1,286046999.1,N
1670378216.0,286046999.1,N
1670378235.8,286046998.8,Y
1670378255.7,286047000.7,P
1670378275.5,286046998.2,N
1670378295.3,286046998.8,N
1670378315.2,286046997.0,Y
1670378335.0,286046999.0,P
1670378335.9,286046999.0,P
1670378355.8,286046998.7,P
1670378375.6,286046998.8,Y
1670378395.4,286046998.1,P
